Location: Kalberh�ni
(46.4610°N, 7.2453°E)
Time: 14:06:18
(UTC+00:00)

Cosmos 2278 Rocket - Visible Passes

Search period start: 22 October 2021 00:00
Search period end: 01 November 2021 00:00
Orbit: 840 x 847 km, 71.0° (Epoch: 21 October)

Date Brightness Start Highest point End Pass type
(mag) Time Alt. Az. Time Alt. Az. Time Alt. Az.
22 Oct 4.0 18:18:03 10° N 18:21:01 14° NE 18:21:01 14° NE visible
22 Oct 4.1 20:00:46 10° NNW 20:02:52 23° NNW 20:02:52 23° NNW visible
23 Oct 4.0 18:03:33 10° N 18:06:26 14° NE 18:06:51 14° NE visible
23 Oct 3.8 19:46:11 10° NNW 19:48:42 26° N 19:48:42 26° N visible
24 Oct 4.0 17:49:02 10° N 17:51:48 14° NE 17:52:43 13° NE visible
24 Oct 3.6 19:31:36 10° NNW 19:34:34 30° N 19:34:34 30° N visible
24 Oct 5.1 21:16:24 10° NW 21:16:25 10° NW 21:16:25 10° NW visible
25 Oct 4.0 17:34:32 10° N 17:37:10 13° NE 17:38:38 12° NE visible
25 Oct 3.3 19:17:01 10° NNW 19:20:29 35° N 19:20:29 35° N visible
25 Oct 5.0 21:01:45 10° NW 21:02:19 12° NW 21:02:19 12° NW visible
26 Oct 4.0 17:20:02 10° N 17:22:31 13° NE 17:24:35 11° ENE visible
26 Oct 3.0 19:02:27 10° NNW 19:06:26 40° N 19:06:26 40° N visible
26 Oct 4.8 20:47:07 10° NW 20:48:17 15° NW 20:48:17 15° NW visible
27 Oct 4.0 17:05:33 10° N 17:07:52 12° NE 17:10:12 10° ENE visible
27 Oct 2.7 18:47:52 10° NNW 18:52:28 45° NNE 18:52:28 45° NNE visible
27 Oct 4.6 20:32:28 10° NW 20:34:19 18° WNW 20:34:19 18° WNW visible
28 Oct 4.0 16:51:05 10° NNE 16:53:14 12° NE 16:55:23 10° ENE visible
28 Oct 2.4 18:33:18 10° NNW 18:38:34 48° NE 18:38:34 48° NE visible
28 Oct 4.3 20:17:50 10° NW 20:20:26 22° WNW 20:20:26 22° WNW visible
29 Oct 2.4 18:18:43 10° NNW 18:24:12 47° ENE 18:24:45 45° ENE visible
29 Oct 4.0 20:03:12 10° NW 20:06:37 27° WNW 20:06:37 27° WNW visible
30 Oct 2.5 18:04:09 10° NNW 18:09:36 45° NE 18:11:03 37° E visible
30 Oct 3.8 19:48:34 10° NW 19:52:56 31° W 19:52:56 31° W visible
31 Oct 2.5 17:49:34 10° NNW 17:54:59 43° NE 17:57:32 27° ESE visible
31 Oct 3.6 19:33:56 10° NW 19:38:55 33° WSW 19:39:26 32° WSW visible
